| time (UTC) | temp F | wind direction | speed MPH | gust MPH | rain 1hr in | rain 24hr in | rain mn in | humidity % | barometer mb |
| 20260510192205 | 60 | 90 | 3.0 | 11.0 | 0.00 | 0.00 | 0.00 | 51 | |
| 20260510191705 | 60 | 68 | 5.0 | 9.0 | 0.00 | 0.00 | 0.00 | 50 | |
| 20260510191205 | 60 | 47 | 7.0 | 10.0 | 0.00 | 0.00 | 0.00 | 50 | |
| 20260510190705 | 60 | 219 | 1.0 | 12.0 | 0.00 | 0.00 | 0.00 | 50 | |
| 20260510190205 | 61 | 139 | 7.0 | 11.0 | 0.00 | 0.00 | 0.00 | 49 | |
| 20260510185705 | 61 | 338 | 6.0 | 14.0 | 0.00 | 0.00 | 0.00 | 48 | |
| 20260510185205 | 60 | 8 | 11.0 | 12.0 | 0.00 | 0.00 | 0.00 | 48 | |
| 20260510184705 | 61 | 64 | 2.0 | 10.0 | 0.00 | 0.00 | 0.00 | 50 | |
| 20260510184205 | 60 | 101 | 5.0 | 13.0 | 0.00 | 0.00 | 0.00 | 50 | |
| 20260510183705 | 58 | 70 | 8.0 | 12.0 | 0.00 | 0.00 | 0.00 | 53 | |
| 20260510183205 | 58 | 125 | 3.0 | 9.0 | 0.00 | 0.00 | 0.00 | 56 | |
| 20260510182705 | 58 | 116 | 4.0 | 7.0 | 0.00 | 0.00 | 0.00 | 55 | |
| 20260510182205 | 58 | 92 | 6.0 | 8.0 | 0.00 | 0.00 | 0.00 | 56 | |
| 20260510181705 | 58 | 68 | 2.0 | 11.0 | 0.00 | 0.00 | 0.00 | 54 | |
| 20260510181205 | 58 | 127 | 9.0 | 12.0 | 0.00 | 0.00 | 0.00 | 52 | |
| 20260510180705 | 60 | 98 | 4.0 | 10.0 | 0.00 | 0.00 | 0.00 | 50 | |
| 20260510180205 | 60 | 94 | 3.0 | 12.0 | 0.00 | 0.00 | 0.00 | 49 | |
| 20260510175705 | 60 | 132 | 10.0 | 11.0 | 0.00 | 0.00 | 0.00 | 49 | |
| 20260510175205 | 61 | 111 | 4.0 | 13.0 | 0.00 | 0.00 | 0.00 | 47 | |
| 20260510174705 | 61 | 168 | 5.0 | 14.0 | 0.00 | 0.00 | 0.00 | 47 | |
| 20260510174205 | 61 | 136 | 4.0 | 11.0 | 0.00 | 0.00 | 0.00 | 49 | |
| 20260510173705 | 60 | 118 | 7.0 | 14.0 | 0.00 | 0.00 | 0.00 | 50 | |
| 20260510173205 | 60 | 132 | 10.0 | 16.0 | 0.00 | 0.00 | 0.00 | 52 | |
| 20260510172705 | 60 | 52 | 4.0 | 19.0 | 0.00 | 0.00 | 0.00 | 50 | |
| 20260510172205 | 60 | 104 | 7.0 | 14.0 | 0.00 | 0.00 | 0.00 | 50 | |
| 20260510171705 | 60 | 84 | 5.0 | 11.0 | 0.00 | 0.00 | 0.00 | 50 | |
| 20260510171205 | 61 | 135 | 8.0 | 13.0 | 0.00 | 0.00 | 0.00 | 48 | |
| 20260510170705 | 60 | 154 | 7.0 | 13.0 | 0.00 | 0.00 | 0.00 | 50 | |
| 20260510170205 | 60 | 126 | 8.0 | 13.0 | 0.00 | 0.00 | 0.00 | 50 | |
| 20260510165705 | 60 | 146 | 2.0 | 9.0 | 0.00 | 0.00 | 0.00 | 50 | |
| 20260510165205 | 60 | 154 | 0.0 | 8.0 | 0.00 | 0.00 | 0.00 | 49 | |
| 20260510164705 | 60 | 343 | 6.0 | 10.0 | 0.00 | 0.00 | 0.00 | 48 | |
| 20260510164205 | 60 | 101 | 5.0 | 9.0 | 0.00 | 0.00 | 0.00 | 49 | |
| 20260510163705 | 59 | 52 | 6.0 | 12.0 | 0.00 | 0.00 | 0.00 | 50 | |
| 20260510163205 | 59 | 337 | 0.0 | 8.0 | 0.00 | 0.00 | 0.00 | 49 | |
| 20260510162705 | 60 | 60 | 3.0 | 8.0 | 0.00 | 0.00 | 0.00 | 49 | |
| 20260510162205 | 60 | 81 | 2.0 | 9.0 | 0.00 | 0.00 | 0.00 | 50 | |
| 20260510161705 | 59 | 1 | 4.0 | 7.0 | 0.00 | 0.00 | 0.00 | 52 | |
| 20260510161205 | 59 | 341 | 3.0 | 5.0 | 0.00 | 0.00 | 0.00 | 50 | |
| 20260510160705 | 58 | 77 | 0.0 | 6.0 | 0.00 | 0.00 | 0.00 | 51 | |
| 20260510160205 | 57 | 137 | 3.0 | 9.0 | 0.00 | 0.00 | 0.00 | 53 | |
| 20260510155705 | 56 | 109 | 4.0 | 8.0 | 0.00 | 0.00 | 0.00 | 57 | |
| 20260510155205 | 55 | 338 | 4.0 | 7.0 | 0.00 | 0.00 | 0.00 | 57 | |
| 20260510154705 | 55 | 4 | 0.0 | 10.0 | 0.00 | 0.00 | 0.00 | 58 | |
| 20260510154205 | 56 | 4 | 4.0 | 8.0 | 0.00 | 0.00 | 0.00 | 55 | |
| 20260510153705 | 57 | 46 | 1.0 | 7.0 | 0.00 | 0.00 | 0.00 | 54 | |
| 20260510153205 | 56 | 7 | 4.0 | 10.0 | 0.00 | 0.00 | 0.00 | 57 | |
| 20260510152705 | 55 | 33 | 3.0 | 9.0 | 0.00 | 0.00 | 0.00 | 58 | |
| 20260510152205 | 54 | 358 | 5.0 | 9.0 | 0.00 | 0.00 | 0.00 | 60 | |
| 20260510151705 | 53 | 337 | 5.0 | 9.0 | 0.00 | 0.00 | 0.00 | 61 | |
| 20260510151205 | 53 | 9 | 4.0 | 8.0 | 0.00 | 0.00 | 0.00 | 63 | |
| 20260510150705 | 53 | 310 | 6.0 | 11.0 | 0.00 | 0.00 | 0.00 | 64 | |
| 20260510150205 | 52 | 35 | 2.0 | 12.0 | 0.00 | 0.00 | 0.00 | 64 | |
| 20260510145705 | 53 | 348 | 8.0 | 10.0 | 0.00 | 0.00 | 0.00 | 64 | |
| 20260510145205 | 52 | 80 | 8.0 | 11.0 | 0.00 | 0.00 | 0.00 | 65 | |
| 20260510144705 | 51 | 323 | 4.0 | 10.0 | 0.00 | 0.00 | 0.00 | 67 | |
| 20260510144205 | 52 | 26 | 6.0 | 11.0 | 0.00 | 0.00 | 0.00 | 67 | |
| 20260510143705 | 51 | 336 | 9.0 | 14.0 | 0.00 | 0.00 | 0.00 | 66 | |
| 20260510143205 | 51 | 312 | 9.0 | 11.0 | 0.00 | 0.00 | 0.00 | 66 | |
| 20260510142705 | 52 | 303 | 7.0 | 10.0 | 0.00 | 0.00 | 0.00 | 64 | |
| 20260510142205 | 53 | 59 | 2.0 | 12.0 | 0.00 | 0.00 | 0.00 | 63 | |
| 20260510141705 | 53 | 97 | 5.0 | 9.0 | 0.00 | 0.00 | 0.00 | 61 | |
| 20260510141205 | 54 | 68 | 2.0 | 4.0 | 0.00 | 0.00 | 0.00 | 59 | |
| 20260510140705 | 54 | 151 | 0.0 | 2.0 | 0.00 | 0.00 | 0.00 | 59 | |
| 20260510140205 | 54 | 167 | 0.0 | 2.0 | 0.00 | 0.00 | 0.00 | 58 | |
| 20260510135705 | 54 | 199 | 0.0 | 1.0 | 0.00 | 0.00 | 0.00 | 58 | |
| 20260510135205 | 54 | 260 | 0.0 | 3.0 | 0.00 | 0.00 | 0.00 | 58 | |
| 20260510134706 | 53 | 161 | 3.0 | 6.0 | 0.00 | 0.00 | 0.00 | 59 | |
| 20260510134205 | 53 | 160 | 1.0 | 3.0 | 0.00 | 0.00 | 0.00 | 59 | |
| 20260510133705 | 53 | 161 | 3.0 | 4.0 | 0.00 | 0.00 | 0.00 | 60 | |
| 20260510133205 | 52 | 0 | 0.0 | 5.0 | 0.00 | 0.00 | 0.00 | 60 | |
| 20260510132705 | 52 | 18 | 0.0 | 5.0 | 0.00 | 0.00 | 0.00 | 61 | |
| 20260510132205 | 52 | 59 | 1.0 | 5.0 | 0.00 | 0.00 | 0.00 | 61 | |
| 20260510131705 | 51 | 8 | 0.0 | 0.0 | 0.00 | 0.00 | 0.00 | 61 | |
| 20260510131205 | 51 | 8 | 0.0 | 0.0 | 0.00 | 0.00 | 0.00 | 62 | |
| 20260510130705 | 51 | 8 | 0.0 | 0.0 | 0.00 | 0.00 | 0.00 | 63 | |
| 20260510130205 | 51 | 8 | 0.0 | 0.0 | 0.00 | 0.00 | 0.00 | 64 | |
| 20260510125705 | 51 | 8 | 0.0 | 0.0 | 0.00 | 0.00 | 0.00 | 64 | |
| 20260510125205 | 51 | 8 | 0.0 | 0.0 | 0.00 | 0.00 | 0.00 | 63 | |
| 20260510124705 | 50 | 8 | 0.0 | 0.0 | 0.00 | 0.00 | 0.00 | 62 | |
| 20260510124205 | 50 | 8 | 0.0 | 0.0 | 0.00 | 0.00 | 0.00 | 62 | |
| 20260510123705 | 50 | 8 | 0.0 | 0.0 | 0.00 | 0.00 | 0.00 | 63 | |
| 20260510123205 | 50 | 8 | 0.0 | 4.0 | 0.00 | 0.00 | 0.00 | 62 | |
| 20260510122705 | 50 | 357 | 0.0 | 1.0 | 0.00 | 0.00 | 0.00 | 63 | |
| 20260510122205 | 50 | 293 | 0.0 | 0.0 | 0.00 | 0.00 | 0.00 | 64 | |
| 20260510121705 | 50 | 293 | 0.0 | 2.0 | 0.00 | 0.00 | 0.00 | 63 | |
| 20260510121205 | 50 | 299 | 1.0 | 2.0 | 0.00 | 0.00 | 0.00 | 63 | |
| 20260510120705 | 51 | 32 | 0.0 | 0.0 | 0.00 | 0.00 | 0.00 | 62 | |
| 20260510120205 | 51 | 32 | 0.0 | 0.0 | 0.00 | 0.00 | 0.00 | 60 | |
| 20260510115705 | 52 | 32 | 0.0 | 0.0 | 0.00 | 0.00 | 0.00 | 60 | |
| 20260510115205 | 52 | 32 | 0.0 | 0.0 | 0.00 | 0.00 | 0.00 | 59 | |
| 20260510114705 | 52 | 32 | 0.0 | 0.0 | 0.00 | 0.00 | 0.00 | 59 | |
| 20260510114205 | 53 | 32 | 0.0 | 0.0 | 0.00 | 0.00 | 0.00 | 59 | |
| 20260510113705 | 53 | 32 | 0.0 | 0.0 | 0.00 | 0.00 | 0.00 | 58 | |
| 20260510113205 | 53 | 32 | 0.0 | 0.0 | 0.00 | 0.00 | 0.00 | 57 | |
| 20260510112705 | 53 | 32 | 0.0 | 0.0 | 0.00 | 0.00 | 0.00 | 57 | |
| 20260510112205 | 53 | 32 | 0.0 | 2.0 | 0.00 | 0.00 | 0.00 | 57 | |
| 20260510111705 | 53 | 14 | 2.0 | 2.0 | 0.00 | 0.00 | 0.00 | 57 | |
| 20260510111205 | 53 | 25 | 0.0 | 4.0 | 0.00 | 0.00 | 0.00 | 57 | |
| 20260510110705 | 53 | 316 | 1.0 | 9.0 | 0.00 | 0.00 | 0.00 | 57 | |
| 20260510110205 | 53 | 313 | 6.0 | 6.0 | 0.00 | 0.00 | 0.00 | 57 | |
| 20260510105705 | 54 | 11 | 3.0 | 8.0 | 0.00 | 0.00 | 0.00 | 56 | |
| 20260510105205 | 53 | 16 | 7.0 | 10.0 | 0.00 | 0.00 | 0.00 | 55 | |
| 20260510104705 | 54 | 26 | 5.0 | 10.0 | 0.00 | 0.00 | 0.00 | 53 | |
| 20260510104205 | 54 | 358 | 5.0 | 8.0 | 0.00 | 0.00 | 0.00 | 51 | |
| 20260510103705 | 55 | 82 | 2.0 | 7.0 | 0.00 | 0.00 | 0.00 | 50 | |
| 20260510103206 | 55 | 142 | 0.0 | 10.0 | 0.00 | 0.00 | 0.00 | 49 | |
| 20260510102705 | 55 | 84 | 10.0 | 10.0 | 0.00 | 0.00 | 0.00 | 48 | |
| 20260510102206 | 56 | 97 | 5.0 | 5.0 | 0.00 | 0.00 | 0.00 | 46 | |
| 20260510101706 | 56 | 37 | 0.0 | 5.0 | 0.00 | 0.00 | 0.00 | 44 | |
| 20260510101206 | 56 | 167 | 0.0 | 5.0 | 0.00 | 0.00 | 0.00 | 43 | |
| 20260510100706 | 56 | 206 | 2.0 | 9.0 | 0.00 | 0.00 | 0.00 | 43 | |
| 20260510100206 | 56 | 99 | 2.0 | 7.0 | 0.00 | 0.00 | 0.00 | 42 | |
| 20260510095706 | 56 | 12 | 6.0 | 8.0 | 0.00 | 0.00 | 0.00 | 42 | |
| 20260510095206 | 56 | 74 | 1.0 | 7.0 | 0.00 | 0.00 | 0.00 | 43 | |
| 20260510094706 | 55 | 203 | 2.0 | 3.0 | 0.00 | 0.00 | 0.00 | 44 | |
| 20260510094206 | 55 | 206 | 1.0 | 1.0 | 0.00 | 0.00 | 0.00 | 43 | |
| 20260510093706 | 55 | 113 | 0.0 | 2.0 | 0.00 | 0.00 | 0.00 | 43 | |
| 20260510093206 | 54 | 56 | 0.0 | 3.0 | 0.00 | 0.00 | 0.00 | 44 | |
| 20260510092706 | 54 | 285 | 0.0 | 5.0 | 0.00 | 0.00 | 0.00 | 44 | |
| 20260510092206 | 52 | 298 | 4.0 | 7.0 | 0.00 | 0.00 | 0.00 | 49 | |
| 20260510091706 | 52 | 322 | 2.0 | 4.0 | 0.00 | 0.00 | 0.00 | 48 | |
| 20260510091206 | 52 | 195 | 1.0 | 2.0 | 0.00 | 0.00 | 0.00 | 46 | |
| 20260510090706 | 52 | 324 | 0.0 | 2.0 | 0.00 | 0.00 | 0.00 | 46 | |
| 20260510090206 | 52 | 354 | 1.0 | 3.0 | 0.00 | 0.00 | 0.00 | 45 | |
| 20260510085706 | 51 | 268 | 1.0 | 3.0 | 0.00 | 0.00 | 0.00 | 46 | |
| 20260510085206 | 51 | 319 | 2.0 | 3.0 | 0.00 | 0.00 | 0.00 | 47 | |
| 20260510084706 | 51 | 289 | 0.0 | 2.0 | 0.00 | 0.00 | 0.00 | 46 | |
| 20260510084206 | 51 | 289 | 0.0 | 0.0 | 0.00 | 0.00 | 0.00 | 45 | |
| 20260510083706 | 51 | 289 | 0.0 | 3.0 | 0.00 | 0.00 | 0.00 | 45 | |
| 20260510083206 | 51 | 336 | 2.0 | 3.0 | 0.00 | 0.00 | 0.00 | 46 | |
| 20260510082706 | 51 | 292 | 0.0 | 0.0 | 0.00 | 0.00 | 0.00 | 47 | |
| 20260510082206 | 51 | 292 | 0.0 | 0.0 | 0.00 | 0.00 | 0.00 | 45 | |
| 20260510081706 | 51 | 292 | 0.0 | 0.0 | 0.00 | 0.00 | 0.00 | 47 | |
| 20260510081206 | 51 | 292 | 0.0 | 0.0 | 0.00 | 0.00 | 0.00 | 49 | |
| 20260510080706 | 51 | 292 | 0.0 | 4.0 | 0.00 | 0.00 | 0.00 | 44 | |
| 20260510080206 | 51 | 296 | 2.0 | 4.0 | 0.00 | 0.00 | 0.00 | 43 | |
| 20260510075706 | 51 | 291 | 2.0 | 2.0 | 0.00 | 0.00 | 0.00 | 43 | |
| 20260510075206 | 51 | 310 | 1.0 | 1.0 | 0.00 | 0.00 | 0.00 | 45 | |
| 20260510074706 | 51 | 223 | 0.0 | 1.0 | 0.00 | 0.00 | 0.00 | 44 | |
| 20260510074206 | 52 | 267 | 0.0 | 2.0 | 0.00 | 0.00 | 0.00 | 44 | |
| 20260510073706 | 51 | 296 | 1.0 | 4.0 | 0.00 | 0.00 | 0.00 | 43 | |
| 20260510073206 | 52 | 323 | 3.0 | 4.0 | 0.00 | 0.00 | 0.00 | 43 | |
| 20260510072706 | 52 | 293 | 2.0 | 4.0 | 0.00 | 0.00 | 0.00 | 42 | |
| 20260510072206 | 52 | 317 | 2.0 | 3.0 | 0.00 | 0.00 | 0.00 | 43 | |
| 20260510071706 | 52 | 215 | 0.0 | 1.0 | 0.00 | 0.00 | 0.00 | 43 | |
| 20260510071206 | 51 | 241 | 1.0 | 4.0 | 0.00 | 0.00 | 0.00 | 43 | |
| 20260510070706 | 51 | 317 | 3.0 | 6.0 | 0.00 | 0.00 | 0.00 | 43 | |
| 20260510070206 | 51 | 292 | 2.0 | 3.0 | 0.00 | 0.00 | 0.00 | 44 | |
| 20260510065706 | 51 | 315 | 2.0 | 3.0 | 0.00 | 0.00 | 0.00 | 45 | |
| 20260510065206 | 51 | 310 | 2.0 | 2.0 | 0.00 | 0.00 | 0.00 | 44 | |
| 20260510064706 | 51 | 23 | 0.0 | 0.0 | 0.00 | 0.00 | 0.00 | 42 | |
| 20260510064206 | 51 | 23 | 0.0 | 0.0 | 0.00 | 0.00 | 0.00 | 42 | |
| 20260510063706 | 51 | 23 | 0.0 | 0.0 | 0.00 | 0.00 | 0.00 | 44 | |
| 20260510063206 | 51 | 23 | 0.0 | 2.0 | 0.00 | 0.00 | 0.00 | 41 | |
| 20260510062706 | 52 | 248 | 0.0 | 3.0 | 0.00 | 0.00 | 0.00 | 40 | |
| 20260510062206 | 51 | 336 | 3.0 | 4.0 | 0.00 | 0.00 | 0.00 | 41 | |
| 20260510061706 | 52 | 326 | 0.0 | 1.0 | 0.00 | 0.00 | 0.00 | 39 | |
| 20260510061206 | 52 | 262 | 0.0 | 1.0 | 0.00 | 0.00 | 0.00 | 40 | |
| 20260510060706 | 52 | 295 | 0.0 | 3.0 | 0.00 | 0.00 | 0.00 | 40 | |
| 20260510060206 | 51 | 312 | 2.0 | 6.0 | 0.00 | 0.00 | 0.00 | 40 | |
| 20260510055706 | 51 | 333 | 4.0 | 4.0 | 0.00 | 0.00 | 0.00 | 42 | |
| 20260510055206 | 51 | 306 | 1.0 | 1.0 | 0.00 | 0.00 | 0.00 | 39 | |
| 20260510054706 | 52 | 316 | 1.0 | 2.0 | 0.00 | 0.00 | 0.00 | 38 | |
| 20260510054206 | 52 | 8 | 0.0 | 2.0 | 0.00 | 0.00 | 0.00 | 38 | |
| 20260510053706 | 52 | 277 | 1.0 | 3.0 | 0.00 | 0.00 | 0.00 | 36 | |
| 20260510053206 | 53 | 291 | 0.0 | 3.0 | 0.00 | 0.00 | 0.00 | 37 | |
| 20260510052706 | 53 | 340 | 2.0 | 3.0 | 0.00 | 0.00 | 0.00 | 35 | |
| 20260510052206 | 54 | 293 | 0.0 | 0.0 | 0.00 | 0.00 | 0.00 | 36 | |
| 20260510051706 | 54 | 293 | 0.0 | 2.0 | 0.00 | 0.00 | 0.00 | 33 | |
| 20260510051206 | 55 | 293 | 0.0 | 1.0 | 0.00 | 0.00 | 0.00 | 34 | |
| 20260510050706 | 55 | 310 | 1.0 | 1.0 | 0.00 | 0.00 | 0.00 | 34 | |
| 20260510050206 | 56 | 312 | 0.0 | 1.0 | 0.00 | 0.00 | 0.00 | 32 | |
| 20260510045706 | 56 | 299 | 0.0 | 3.0 | 0.00 | 0.00 | 0.00 | 30 | |
| 20260510045206 | 56 | 250 | 0.0 | 5.0 | 0.00 | 0.00 | 0.00 | 31 | |
| 20260510044706 | 56 | 322 | 3.0 | 4.0 | 0.00 | 0.00 | 0.00 | 32 | |
| 20260510044206 | 57 | 258 | 0.0 | 0.0 | 0.00 | 0.00 | 0.00 | 32 | |
| 20260510043706 | 58 | 258 | 0.0 | 3.0 | 0.00 | 0.00 | 0.00 | 28 | |
| 20260510043206 | 58 | 285 | 0.0 | 0.0 | 0.00 | 0.00 | 0.00 | 28 | |
| 20260510042706 | 58 | 285 | 0.0 | 4.0 | 0.00 | 0.00 | 0.00 | 29 | |
| 20260510042206 | 58 | 344 | 3.0 | 4.0 | 0.00 | 0.00 | 0.00 | 30 | |
| 20260510041706 | 59 | 227 | 0.0 | 4.0 | 0.00 | 0.00 | 0.00 | 29 | |
| 20260510041206 | 58 | 327 | 4.0 | 4.0 | 0.00 | 0.00 | 0.00 | 32 | |
| 20260510040706 | 58 | 350 | 3.0 | 9.0 | 0.00 | 0.00 | 0.00 | 28 | |
| 20260510040206 | 56 | 331 | 2.0 | 4.0 | 0.00 | 0.00 | 0.00 | 30 | |
| 20260510035706 | 56 | 205 | 0.0 | 0.0 | 0.00 | 0.00 | 0.00 | 31 | |
| 20260510035206 | 56 | 205 | 0.0 | 0.0 | 0.00 | 0.00 | 0.00 | 30 | |
| 20260510034706 | 57 | 205 | 0.0 | 0.0 | 0.00 | 0.00 | 0.00 | 30 | |
| 20260510034206 | 57 | 205 | 0.0 | 1.0 | 0.00 | 0.00 | 0.00 | 31 | |
| 20260510033706 | 57 | 139 | 0.0 | 2.0 | 0.00 | 0.00 | 0.00 | 33 | |
| 20260510033206 | 58 | 307 | 0.0 | 0.0 | 0.00 | 0.00 | 0.00 | 31 | |
| 20260510032706 | 58 | 307 | 0.0 | 2.0 | 0.00 | 0.00 | 0.00 | 28 | |
| 20260510032206 | 58 | 302 | 2.0 | 2.0 | 0.00 | 0.00 | 0.00 | 27 | |
| 20260510031706 | 58 | 355 | 0.0 | 3.0 | 0.00 | 0.00 | 0.00 | 27 | |
| 20260510031206 | 58 | 319 | 2.0 | 2.0 | 0.00 | 0.00 | 0.00 | 26 | |
| 20260510030706 | 58 | 329 | 1.0 | 2.0 | 0.00 | 0.00 | 0.00 | 26 | |
| 20260510030206 | 58 | 317 | 1.0 | 3.0 | 0.00 | 0.00 | 0.00 | 25 | |
| 20260510025706 | 58 | 315 | 2.0 | 5.0 | 0.00 | 0.00 | 0.00 | 25 | |
| 20260510025206 | 58 | 309 | 2.0 | 3.0 | 0.00 | 0.00 | 0.00 | 24 | |
| 20260510024706 | 58 | 313 | 1.0 | 3.0 | 0.00 | 0.00 | 0.00 | 24 | |
| 20260510024206 | 59 | 312 | 2.0 | 3.0 | 0.00 | 0.00 | 0.00 | 23 | |
| 20260510023706 | 59 | 322 | 2.0 | 3.0 | 0.00 | 0.00 | 0.00 | 22 | |
| 20260510023206 | 60 | 274 | 0.0 | 3.0 | 0.00 | 0.00 | 0.00 | 21 | |
| 20260510022706 | 60 | 316 | 3.0 | 5.0 | 0.00 | 0.00 | 0.00 | 21 | |
| 20260510022206 | 61 | 322 | 2.0 | 2.0 | 0.00 | 0.00 | 0.00 | 18 | |
| 20260510021706 | 61 | 274 | 1.0 | 3.0 | 0.00 | 0.00 | 0.00 | 18 | |
| 20260510021206 | 62 | 299 | 2.0 | 4.0 | 0.00 | 0.00 | 0.00 | 18 | |
| 20260510020706 | 63 | 319 | 1.0 | 3.0 | 0.00 | 0.00 | 0.00 | 17 | |
| 20260510020206 | 65 | 327 | 1.0 | 3.0 | 0.00 | 0.00 | 0.00 | 16 | |
| 20260510015706 | 66 | 322 | 3.0 | 3.0 | 0.00 | 0.00 | 0.00 | 16 | |
| 20260510015206 | 67 | 275 | 0.0 | 0.0 | 0.00 | 0.00 | 0.00 | 14 | |
| 20260510014706 | 68 | 275 | 0.0 | 0.0 | 0.00 | 0.00 | 0.00 | 14 | |
| 20260510014206 | 70 | 275 | 0.0 | 0.0 | 0.00 | 0.00 | 0.00 | 13 | |
| 20260510013706 | 70 | 275 | 0.0 | 8.0 | 0.00 | 0.00 | 0.00 | 12 | |
| 20260510013206 | 70 | 323 | 3.0 | 6.0 | 0.00 | 0.00 | 0.00 | 12 | |
| 20260510012706 | 70 | 293 | 0.0 | 5.0 | 0.00 | 0.00 | 0.00 | 11 | |
| 20260510012206 | 71 | 42 | 0.0 | 8.0 | 0.00 | 0.00 | 0.00 | 12 | |
| 20260510011706 | 71 | 289 | 0.0 | 9.0 | 0.00 | 0.00 | 0.00 | 12 | |
| 20260510011206 | 71 | 206 | 0.0 | 5.0 | 0.00 | 0.00 | 0.00 | 11 | |
| 20260510010706 | 71 | 262 | 2.0 | 8.0 | 0.00 | 0.00 | 0.00 | 11 | |
| 20260510010206 | 71 | 326 | 8.0 | 10.0 | 0.00 | 0.00 | 0.00 | 11 | |
| 20260510005706 | 72 | 284 | 1.0 | 5.0 | 0.00 | 0.00 | 0.00 | 12 | |
| 20260510005206 | 72 | 0 | 3.0 | 3.0 | 0.00 | 0.00 | 0.00 | 13 | |
| 20260510004706 | 72 | 286 | 1.0 | 4.0 | 0.00 | 0.00 | 0.00 | 12 | |
| 20260510004206 | 73 | 255 | 0.0 | 2.0 | 0.00 | 0.00 | 0.00 | 12 | |
| 20260510003706 | 73 | 201 | 0.0 | 3.0 | 0.00 | 0.00 | 0.00 | 12 | |
| 20260510003206 | 73 | 316 | 0.0 | 1.0 | 0.00 | 0.00 | 0.00 | 12 | |
| 20260510002706 | 74 | 201 | 0.0 | 1.0 | 0.00 | 0.00 | 0.00 | 12 | |
| 20260510002206 | 73 | 26 | 0.0 | 3.0 | 0.00 | 0.00 | 0.00 | 11 | |
| 20260510001706 | 73 | 296 | 1.0 | 6.0 | 0.00 | 0.00 | 0.00 | 12 | |
| 20260510001206 | 73 | 133 | 1.0 | 6.0 | 0.00 | 0.00 | 0.00 | 12 | |
| 20260510000706 | 72 | 358 | 5.0 | 10.0 | 0.00 | 0.00 | 0.00 | 12 | |
| 20260510000206 | 72 | 305 | 6.0 | 6.0 | 0.00 | 0.00 | 0.00 | 11 | |
| 20260509235706 | 73 | 333 | 1.0 | 8.0 | 0.00 | 0.00 | 0.00 | 12 | |
| 20260509235207 | 72 | 7 | 7.0 | 14.0 | 0.00 | 0.00 | 0.00 | 12 | |
| 20260509234707 | 72 | 313 | 10.0 | 15.0 | 0.00 | 0.00 | 0.00 | 12 | |
| 20260509234207 | 73 | 32 | 2.0 | 10.0 | 0.00 | 0.00 | 0.00 | 11 | |
| 20260509233707 | 73 | 4 | 7.0 | 13.0 | 0.00 | 0.00 | 0.00 | 11 | |
| 20260509233207 | 73 | 343 | 7.0 | 18.0 | 0.00 | 0.00 | 0.00 | 11 | |
| 20260509232707 | 73 | 271 | 6.0 | 17.0 | 0.00 | 0.00 | 0.00 | 11 | |
| 20260509232207 | 74 | 310 | 4.0 | 8.0 | 0.00 | 0.00 | 0.00 | 11 | |
| 20260509231707 | 75 | 341 | 5.0 | 5.0 | 0.00 | 0.00 | 0.00 | 11 | |
| 20260509231207 | 76 | 261 | 0.0 | 5.0 | 0.00 | 0.00 | 0.00 | 11 | |
| 20260509230707 | 76 | 306 | 1.0 | 9.0 | 0.00 | 0.00 | 0.00 | 11 | |
| 20260509230207 | 75 | 30 | 3.0 | 16.0 | 0.00 | 0.00 | 0.00 | 12 | |
| 20260509225707 | 74 | 329 | 8.0 | 11.0 | 0.00 | 0.00 | 0.00 | 12 | |
| 20260509225207 | 73 | 326 | 8.0 | 14.0 | 0.00 | 0.00 | 0.00 | 12 | |
| 20260509224707 | 74 | 255 | 2.0 | 14.0 | 0.00 | 0.00 | 0.00 | 12 | |
| 20260509224207 | 75 | 313 | 10.0 | 18.0 | 0.00 | 0.00 | 0.00 | 10 | |
| 20260509223707 | 76 | 268 | 1.0 | 12.0 | 0.00 | 0.00 | 0.00 | 10 | |
| 20260509223207 | 76 | 30 | 0.0 | 10.0 | 0.00 | 0.00 | 0.00 | 10 | |
| 20260509222707 | 76 | 267 | 0.0 | 14.0 | 0.00 | 0.00 | 0.00 | 11 | |
| 20260509222207 | 76 | 310 | 6.0 | 14.0 | 0.00 | 0.00 | 0.00 | 11 | |
| 20260509221707 | 75 | 331 | 12.0 | 16.0 | 0.00 | 0.00 | 0.00 | 11 | |
| 20260509221207 | 75 | 334 | 9.0 | 12.0 | 0.00 | 0.00 | 0.00 | 10 | |
| 20260509220707 | 77 | 28 | 0.0 | 4.0 | 0.00 | 0.00 | 0.00 | 10 | |
| 20260509220207 | 78 | 222 | 0.0 | 12.0 | 0.00 | 0.00 | 0.00 | 9 | |
| 20260509215707 | 78 | 132 | 2.0 | 14.0 | 0.00 | 0.00 | 0.00 | 9 | |
| 20260509215207 | 79 | 316 | 7.0 | 16.0 | 0.00 | 0.00 | 0.00 | 9 | |
| 20260509214707 | 78 | 11 | 5.0 | 18.0 | 0.00 | 0.00 | 0.00 | 9 | |
| 20260509214207 | 77 | 284 | 9.0 | 16.0 | 0.00 | 0.00 | 0.00 | 10 | |
| 20260509213707 | 77 | 336 | 9.0 | 10.0 | 0.00 | 0.00 | 0.00 | 10 | |
| 20260509213207 | 77 | 302 | 8.0 | 11.0 | 0.00 | 0.00 | 0.00 | 10 | |
| 20260509212707 | 78 | 298 | 9.0 | 16.0 | 0.00 | 0.00 | 0.00 | 9 | |
| 20260509212207 | 79 | 5 | 4.0 | 14.0 | 0.00 | 0.00 | 0.00 | 9 | |
| 20260509211707 | 79 | 15 | 5.0 | 17.0 | 0.00 | 0.00 | 0.00 | 9 | |
| 20260509211207 | 78 | 14 | 5.0 | 12.0 | 0.00 | 0.00 | 0.00 | 9 | |
| 20260509210707 | 78 | 160 | 4.0 | 20.0 | 0.00 | 0.00 | 0.00 | 9 | |
| 20260509210207 | 78 | 22 | 0.0 | 10.0 | 0.00 | 0.00 | 0.00 | 9 | |
| 20260509205707 | 78 | 317 | 2.0 | 10.0 | 0.00 | 0.00 | 0.00 | 9 | |
| 20260509205207 | 77 | 264 | 2.0 | 13.0 | 0.00 | 0.00 | 0.00 | 10 | |
| 20260509204707 | 76 | 337 | 3.0 | 15.0 | 0.00 | 0.00 | 0.00 | 11 | |
| 20260509204207 | 78 | 109 | 2.0 | 6.0 | 0.00 | 0.00 | 0.00 | 10 | |
| 20260509203707 | 77 | 36 | 0.0 | 10.0 | 0.00 | 0.00 | 0.00 | 11 | |
| 20260509203207 | 76 | 14 | 4.0 | 13.0 | 0.00 | 0.00 | 0.00 | 11 | |
| 20260509202707 | 75 | 315 | 10.0 | 16.0 | 0.00 | 0.00 | 0.00 | 11 | |
| 20260509202207 | 77 | 351 | 4.0 | 11.0 | 0.00 | 0.00 | 0.00 | 11 | |
| 20260509201707 | 77 | 12 | 6.0 | 14.0 | 0.00 | 0.00 | 0.00 | 10 | |
| 20260509201207 | 77 | 341 | 4.0 | 9.0 | 0.00 | 0.00 | 0.00 | 10 | |
| 20260509200707 | 76 | 343 | 8.0 | 14.0 | 0.00 | 0.00 | 0.00 | 11 | |
| 20260509200207 | 77 | 5 | 13.0 | 16.0 | 0.00 | 0.00 | 0.00 | 10 | |
| 20260509195707 | 78 | 306 | 3.0 | 15.0 | 0.00 | 0.00 | 0.00 | 11 | |
| 20260509195207 | 77 | 312 | 8.0 | 14.0 | 0.00 | 0.00 | 0.00 | 10 | |
| 20260509194707 | 76 | 302 | 5.0 | 13.0 | 0.00 | 0.00 | 0.00 | 11 | |
| 20260509194207 | 76 | 50 | 2.0 | 14.0 | 0.00 | 0.00 | 0.00 | 11 | |
| 20260509193707 | 75 | 309 | 9.0 | 14.0 | 0.00 | 0.00 | 0.00 | 12 | |
| 20260509193207 | 74 | 351 | 7.0 | 18.0 | 0.00 | 0.00 | 0.00 | 11 | |
| 20260509192707 | 74 | 201 | 3.0 | 7.0 | 0.00 | 0.00 | 0.00 | 12 |